KUG359 OBBI-OKKK

Flight info

Callsign KUG359
Flight time 0h 42m
Altitude 26000
Route BHR A453 DEBTI
Aircraft A346/H-SDE2E3FGHIJ3J4J5M1RWXY/LB1D1

Departure

Time 2026-04-28 14:42
Airport Bahrain International Airport (OBBI)

Arrival

Time 2026-04-28 15:24
Airport Kuwait International Airport (OKKK)
Time Latitude Longitude Altitude Speed Heading
2026-04-28 14:18 26.26459 50.63695 21 ft 0 kts 212°
2026-04-28 14:30 26.26464 50.63699 21 ft 2 kts 212°
2026-04-28 14:31 26.26477 50.63708 21 ft 2 kts 212°
2026-04-28 14:31 26.26489 50.63717 21 ft 2 kts 212°
2026-04-28 14:31 26.26502 50.63726 21 ft 2 kts 213°
2026-04-28 14:31 26.26513 50.63737 21 ft 2 kts 236°
2026-04-28 14:32 26.26519 50.63752 21 ft 2 kts 259°
2026-04-28 14:32 26.26520 50.63769 21 ft 2 kts 279°
2026-04-28 14:32 26.26516 50.63784 21 ft 1 kts 299°
2026-04-28 14:32 26.26513 50.63790 21 ft 0 kts 303°
2026-04-28 14:35 26.26521 50.63777 21 ft 4 kts 303°
2026-04-28 14:35 26.26553 50.63752 21 ft 6 kts 346°
2026-04-28 14:35 26.26605 50.63772 21 ft 9 kts 18°
2026-04-28 14:36 26.26658 50.63742 21 ft 10 kts 307°
2026-04-28 14:36 26.26705 50.63660 21 ft 14 kts 302°
2026-04-28 14:36 26.26762 50.63561 21 ft 16 kts 302°
2026-04-28 14:36 26.26828 50.63446 21 ft 18 kts 303°
2026-04-28 14:37 26.26884 50.63351 21 ft 8 kts 302°
2026-04-28 14:37 26.26905 50.63314 21 ft 7 kts 302°
2026-04-28 14:37 26.26943 50.63250 21 ft 12 kts 302°
2026-04-28 14:37 26.26997 50.63156 21 ft 16 kts 302°
2026-04-28 14:38 26.27065 50.63039 21 ft 18 kts 303°
2026-04-28 14:38 26.27145 50.62915 21 ft 20 kts 307°
2026-04-28 14:38 26.27229 50.62775 21 ft 22 kts 302°
2026-04-28 14:38 26.27317 50.62623 21 ft 24 kts 302°
2026-04-28 14:39 26.27413 50.62459 21 ft 26 kts 303°
2026-04-28 14:39 26.27513 50.62286 21 ft 21 kts 302°
2026-04-28 14:39 26.27582 50.62165 21 ft 19 kts 302°
2026-04-28 14:39 26.27659 50.62035 21 ft 21 kts 303°
2026-04-28 14:40 26.27742 50.61893 21 ft 22 kts 303°
2026-04-28 14:40 26.27801 50.61792 21 ft 24 kts 302°
2026-04-28 14:40 26.27898 50.61641 21 ft 10 kts 337°
2026-04-28 14:40 26.27981 50.61655 21 ft 13 kts 28°
2026-04-28 14:41 26.28025 50.61727 21 ft 11 kts 96°
2026-04-28 14:41 26.27966 50.61851 21 ft 44 kts 122°
2026-04-28 14:41 26.27616 50.62454 21 ft 136 kts 123°
2026-04-28 14:41 26.26995 50.63528 311 ft 182 kts 121°
2026-04-28 14:42 26.26250 50.64603 1244 ft 180 kts 139°
2026-04-28 14:42 26.25393 50.65553 2145 ft 170 kts 117°
2026-04-28 14:42 26.25161 50.66768 2705 ft 167 kts 86°
2026-04-28 14:42 26.25333 50.68111 3020 ft 182 kts 79°
2026-04-28 14:43 26.25594 50.69536 3316 ft 198 kts 78°
2026-04-28 14:43 26.26113 50.71017 3594 ft 215 kts 50°
2026-04-28 14:43 26.27433 50.71842 3881 ft 232 kts
2026-04-28 14:43 26.29079 50.71531 4174 ft 251 kts 335°
2026-04-28 14:44 26.30657 50.70564 4570 ft 269 kts 329°
2026-04-28 14:44 26.32294 50.69482 5129 ft 279 kts 330°
2026-04-28 14:44 26.33987 50.68423 5843 ft 281 kts 331°
2026-04-28 14:44 26.35717 50.67399 6530 ft 284 kts 332°
2026-04-28 14:45 26.37497 50.66389 7185 ft 287 kts 333°
2026-04-28 14:45 26.39283 50.65397 7808 ft 290 kts 333°
2026-04-28 14:45 26.41085 50.64408 8427 ft 292 kts 333°
2026-04-28 14:45 26.42930 50.63400 9045 ft 295 kts 333°
2026-04-28 14:46 26.44784 50.62390 9652 ft 297 kts 333°
2026-04-28 14:46 26.46645 50.61379 10235 ft 299 kts 333°
2026-04-28 14:46 26.48544 50.60348 10588 ft 313 kts 332°
2026-04-28 14:46 26.50551 50.59261 10879 ft 329 kts 332°
2026-04-28 14:47 26.52657 50.58116 11180 ft 345 kts 332°
2026-04-28 14:47 26.54873 50.56911 11491 ft 362 kts 332°
2026-04-28 14:47 26.57194 50.55651 11884 ft 376 kts 332°
2026-04-28 14:47 26.59564 50.54363 12524 ft 381 kts 332°
2026-04-28 14:48 26.61973 50.53057 13238 ft 386 kts 332°
2026-04-28 14:48 26.64369 50.51755 13923 ft 390 kts 332°
2026-04-28 14:48 26.66830 50.50420 14590 ft 394 kts 331°
2026-04-28 14:48 26.69236 50.48944 15258 ft 396 kts 325°
2026-04-28 14:49 26.71496 50.47176 15936 ft 397 kts 319°
2026-04-28 14:49 26.73564 50.45167 16593 ft 398 kts 314°
2026-04-28 14:49 26.75595 50.43019 17254 ft 401 kts 313°
2026-04-28 14:49 26.77608 50.40863 17901 ft 403 kts 313°
2026-04-28 14:50 26.79639 50.38696 18539 ft 406 kts 313°
2026-04-28 14:50 26.81704 50.36504 19170 ft 409 kts 312°
2026-04-28 14:50 26.83775 50.34312 19790 ft 411 kts 312°
2026-04-28 14:50 26.85838 50.32129 20399 ft 414 kts 311°
2026-04-28 14:51 26.87946 50.29894 21009 ft 416 kts 311°
2026-04-28 14:51 26.90064 50.27645 21406 ft 425 kts 311°
2026-04-28 14:51 26.92239 50.25331 21772 ft 434 kts 311°
2026-04-28 14:51 26.94404 50.23032 22444 ft 433 kts 311°
2026-04-28 14:52 26.96586 50.20716 23214 ft 429 kts 311°
2026-04-28 14:52 26.98742 50.18425 23919 ft 426 kts 310°
2026-04-28 14:52 27.00861 50.16170 24551 ft 425 kts 310°
2026-04-28 14:52 27.03011 50.13876 25108 ft 426 kts 309°
2026-04-28 14:53 27.05085 50.11501 25592 ft 427 kts 307°
2026-04-28 14:53 27.07052 50.09016 25818 ft 426 kts 304°
2026-04-28 14:53 27.08979 50.06502 25885 ft 425 kts 304°
2026-04-28 14:53 27.10906 50.03971 25919 ft 424 kts 303°
2026-04-28 14:54 27.12817 50.01455 25937 ft 423 kts 303°
2026-04-28 14:54 27.14732 49.98934 25921 ft 422 kts 303°
2026-04-28 14:54 27.16632 49.96428 25836 ft 421 kts 303°
2026-04-28 14:54 27.18518 49.93938 25794 ft 422 kts 303°
2026-04-28 14:55 27.20418 49.91430 25773 ft 422 kts 303°
2026-04-28 14:55 27.22321 49.88917 25764 ft 422 kts 303°
2026-04-28 14:55 27.24223 49.86406 25764 ft 423 kts 303°
2026-04-28 14:55 27.26119 49.83902 25764 ft 423 kts 303°
2026-04-28 14:56 27.28037 49.81368 25764 ft 424 kts 303°
2026-04-28 14:56 27.29943 49.78848 25766 ft 424 kts 303°
2026-04-28 14:56 27.31869 49.76301 25772 ft 424 kts 303°
2026-04-28 14:56 27.33767 49.73790 25776 ft 425 kts 303°
2026-04-28 14:57 27.35689 49.71245 25777 ft 425 kts 303°
2026-04-28 14:57 27.37584 49.68734 25778 ft 425 kts 303°
2026-04-28 14:57 27.39510 49.66179 25777 ft 425 kts 303°
2026-04-28 14:57 27.41403 49.63667 25776 ft 425 kts 303°
2026-04-28 14:58 27.43308 49.61137 25776 ft 425 kts 303°
2026-04-28 14:58 27.45244 49.58570 25775 ft 426 kts 303°
2026-04-28 14:58 27.47252 49.56105 25774 ft 429 kts 307°
2026-04-28 14:58 27.49401 49.53759 25773 ft 432 kts 310°
2026-04-28 14:59 27.51657 49.51571 25773 ft 435 kts 313°
2026-04-28 14:59 27.54037 49.49418 25774 ft 436 kts 314°
2026-04-28 14:59 27.56406 49.47298 25773 ft 436 kts 314°
2026-04-28 14:59 27.58792 49.45166 25773 ft 436 kts 314°
2026-04-28 15:00 27.61157 49.43050 25773 ft 437 kts 314°
2026-04-28 15:00 27.63552 49.40905 25773 ft 437 kts 314°
2026-04-28 15:00 27.65926 49.38775 25773 ft 437 kts 314°
2026-04-28 15:00 27.68308 49.36635 25774 ft 437 kts 314°
2026-04-28 15:01 27.70698 49.34488 25776 ft 437 kts 313°
2026-04-28 15:01 27.73072 49.32351 25777 ft 437 kts 313°
2026-04-28 15:01 27.75452 49.30209 25776 ft 436 kts 313°
2026-04-28 15:01 27.77816 49.28079 25775 ft 436 kts 313°
2026-04-28 15:02 27.80173 49.25954 25773 ft 436 kts 313°
2026-04-28 15:02 27.82544 49.23815 25771 ft 436 kts 313°
2026-04-28 15:02 27.84936 49.21665 25767 ft 437 kts 314°
2026-04-28 15:02 27.87391 49.19632 25635 ft 440 kts 317°
2026-04-28 15:03 27.89965 49.17743 25435 ft 442 kts 321°
2026-04-28 15:03 27.92636 49.15962 25213 ft 443 kts 322°
2026-04-28 15:03 27.95275 49.14233 24903 ft 443 kts 322°
2026-04-28 15:03 27.97952 49.12485 24487 ft 443 kts 322°
2026-04-28 15:04 28.00641 49.10728 23948 ft 444 kts 322°
2026-04-28 15:04 28.03291 49.08991 23346 ft 445 kts 322°
2026-04-28 15:04 28.05960 49.07238 22682 ft 445 kts 323°
2026-04-28 15:04 28.08622 49.05489 22251 ft 441 kts 323°
2026-04-28 15:05 28.11322 49.03713 22093 ft 442 kts 323°
2026-04-28 15:05 28.13996 49.01951 21957 ft 442 kts 323°
2026-04-28 15:05 28.16633 49.00214 21867 ft 442 kts 323°
2026-04-28 15:05 28.19306 48.98453 21780 ft 442 kts 323°
2026-04-28 15:06 28.21969 48.96697 21703 ft 441 kts 323°
2026-04-28 15:06 28.24627 48.94942 21685 ft 441 kts 324°
2026-04-28 15:06 28.27270 48.93198 21684 ft 441 kts 324°
2026-04-28 15:06 28.29902 48.91460 21524 ft 441 kts 324°
2026-04-28 15:07 28.32545 48.89718 21207 ft 434 kts 324°
2026-04-28 15:07 28.35160 48.87991 20630 ft 432 kts 324°
2026-04-28 15:07 28.37722 48.86296 20103 ft 427 kts 323°
2026-04-28 15:07 28.40274 48.84605 19585 ft 423 kts 323°
2026-04-28 15:08 28.42794 48.82933 19067 ft 419 kts 323°
2026-04-28 15:08 28.45300 48.81269 18544 ft 415 kts 323°
2026-04-28 15:08 28.47807 48.79602 18002 ft 410 kts 323°
2026-04-28 15:08 28.50249 48.77977 17473 ft 406 kts 324°
2026-04-28 15:09 28.52657 48.76374 16887 ft 401 kts 324°
2026-04-28 15:09 28.55040 48.74789 16206 ft 397 kts 324°
2026-04-28 15:09 28.57321 48.73066 15519 ft 385 kts 314°
2026-04-28 15:09 28.59085 48.70873 14966 ft 373 kts 303°
2026-04-28 15:10 28.60649 48.68511 14734 ft 374 kts 303°
2026-04-28 15:10 28.62213 48.66131 14685 ft 376 kts 303°
2026-04-28 15:10 28.63778 48.63757 14675 ft 377 kts 303°
2026-04-28 15:10 28.65356 48.61374 14480 ft 373 kts 303°
2026-04-28 15:11 28.66905 48.59039 13588 ft 373 kts 303°
2026-04-28 15:11 28.68458 48.56699 12860 ft 362 kts 303°
2026-04-28 15:11 28.69932 48.54484 12264 ft 344 kts 303°
2026-04-28 15:11 28.71321 48.52393 11815 ft 325 kts 303°
2026-04-28 15:12 28.72642 48.50399 11439 ft 306 kts 303°
2026-04-28 15:12 28.73886 48.48517 11127 ft 288 kts 302°
2026-04-28 15:12 28.75030 48.46714 10832 ft 272 kts 302°
2026-04-28 15:12 28.76112 48.44986 10457 ft 263 kts 301°
2026-04-28 15:13 28.77149 48.43326 10059 ft 256 kts 302°
2026-04-28 15:13 28.78161 48.41713 9791 ft 244 kts 302°
2026-04-28 15:13 28.79137 48.40155 9378 ft 240 kts 301°
2026-04-28 15:13 28.80106 48.38614 8900 ft 239 kts 301°
2026-04-28 15:14 28.81059 48.37089 8429 ft 238 kts 301°
2026-04-28 15:14 28.82013 48.35558 7965 ft 237 kts 301°
2026-04-28 15:14 28.82962 48.34038 7507 ft 235 kts 301°
2026-04-28 15:14 28.83906 48.32530 7060 ft 234 kts 301°
2026-04-28 15:15 28.84851 48.31022 6610 ft 233 kts 301°
2026-04-28 15:15 28.85794 48.29516 6165 ft 232 kts 301°
2026-04-28 15:15 28.86729 48.28025 5733 ft 231 kts 301°
2026-04-28 15:15 28.87661 48.26539 5296 ft 230 kts 301°
2026-04-28 15:16 28.88585 48.25061 4867 ft 229 kts 301°
2026-04-28 15:16 28.89511 48.23579 4445 ft 228 kts 301°
2026-04-28 15:16 28.90434 48.22109 4021 ft 227 kts 300°
2026-04-28 15:16 28.91336 48.20663 3611 ft 226 kts 300°
2026-04-28 15:17 28.92251 48.19193 3299 ft 226 kts 301°
2026-04-28 15:17 28.93166 48.17728 3066 ft 225 kts 301°
2026-04-28 15:17 28.94068 48.16283 3013 ft 226 kts 301°
2026-04-28 15:17 28.94989 48.14806 3020 ft 228 kts 301°
2026-04-28 15:18 28.95904 48.13340 3024 ft 229 kts 300°
2026-04-28 15:18 28.96898 48.11896 3014 ft 232 kts 309°
2026-04-28 15:18 28.98029 48.10574 3008 ft 234 kts 313°
2026-04-28 15:18 28.99312 48.09392 3000 ft 237 kts 324°
2026-04-28 15:19 29.00744 48.08481 3000 ft 239 kts 331°
2026-04-28 15:19 29.02275 48.07681 3001 ft 239 kts 333°
2026-04-28 15:19 29.03792 48.06914 3001 ft 240 kts 333°
2026-04-28 15:19 29.05292 48.06141 2990 ft 229 kts 332°
2026-04-28 15:20 29.06697 48.05401 2984 ft 218 kts 332°
2026-04-28 15:20 29.08078 48.04662 2877 ft 215 kts 332°
2026-04-28 15:20 29.09407 48.03952 2594 ft 204 kts 332°
2026-04-28 15:20 29.10654 48.03284 2338 ft 194 kts 332°
2026-04-28 15:21 29.11845 48.02652 2098 ft 184 kts 332°
2026-04-28 15:21 29.12997 48.02039 1881 ft 183 kts 331°
2026-04-28 15:21 29.14155 48.01418 1658 ft 181 kts 331°
2026-04-28 15:21 29.15273 48.00819 1428 ft 176 kts 331°
2026-04-28 15:22 29.16379 48.00229 1202 ft 172 kts 331°
2026-04-28 15:22 29.17461 47.99654 984 ft 170 kts 331°
2026-04-28 15:22 29.18524 47.99094 770 ft 167 kts 331°
2026-04-28 15:22 29.19572 47.98532 559 ft 164 kts 331°
2026-04-28 15:23 29.20592 47.97997 346 ft 161 kts 331°
2026-04-28 15:23 29.21604 47.97455 182 ft 153 kts 331°
2026-04-28 15:23 29.22397 47.97024 166 ft 97 kts 334°
2026-04-28 15:23 29.22877 47.96772 159 ft 59 kts 334°
2026-04-28 15:24 29.23179 47.96615 156 ft 34 kts 341°
2026-04-28 15:24 29.23356 47.96606 156 ft 20 kts 15°
2026-04-28 15:24 29.23418 47.96627 155 ft 0 kts 18°
2026-04-28 15:24 29.23427 47.96631 155 ft 3 kts 18°
2026-04-28 15:25 29.23470 47.96647 154 ft 6 kts 18°
2026-04-28 15:25 29.23495 47.96676 153 ft 5 kts 88°
2026-04-28 15:25 29.23466 47.96709 154 ft 8 kts 154°
2026-04-28 15:25 29.23410 47.96741 155 ft 8 kts 149°
2026-04-28 15:26 29.23393 47.96792 156 ft 8 kts 79°
2026-04-28 15:26 29.23421 47.96862 157 ft 10 kts 63°
2026-04-28 15:26 29.23458 47.96948 157 ft 13 kts 65°
2026-04-28 15:26 29.23503 47.97057 157 ft 16 kts 65°
2026-04-28 15:27 29.23551 47.97174 160 ft 16 kts 64°
2026-04-28 15:27 29.23599 47.97291 162 ft 16 kts 65°
2026-04-28 15:27 29.23640 47.97395 164 ft 14 kts 67°
2026-04-28 15:27 29.23679 47.97503 166 ft 14 kts 68°
2026-04-28 15:28 29.23719 47.97615 168 ft 15 kts 68°
2026-04-28 15:28 29.23760 47.97728 171 ft 15 kts 66°
2026-04-28 15:28 29.23807 47.97847 172 ft 17 kts 66°
2026-04-28 15:28 29.23857 47.97976 174 ft 17 kts 67°
2026-04-28 15:29 29.23906 47.98106 175 ft 12 kts 67°
2026-04-28 15:29 29.23935 47.98160 175 ft 6 kts 22°
2026-04-28 15:29 29.23996 47.98150 175 ft 10 kts 339°
2026-04-28 15:29 29.24067 47.98095 175 ft 13 kts 316°
2026-04-28 15:30 29.24155 47.98029 174 ft 16 kts 334°
2026-04-28 15:30 29.24263 47.97972 176 ft 17 kts 335°
2026-04-28 15:30 29.24380 47.97911 176 ft 19 kts 336°
2026-04-28 15:30 29.24508 47.97846 175 ft 17 kts 335°
2026-04-28 15:31 29.24582 47.97807 174 ft 8 kts 330°
2026-04-28 15:31 29.24611 47.97745 173 ft 6 kts 273°
2026-04-28 15:31 29.24611 47.97698 172 ft 3 kts 268°
2026-04-28 15:31 29.24610 47.97671 171 ft 0 kts 268°
2026-04-28 15:32 29.24610 47.97657 171 ft 1 kts 269°
2026-04-28 15:32 29.24610 47.97656 171 ft 0 kts 269°